SCP
1 1 1 1 1 1 1 1 1 1 1 1 0 0 0 0 0 0 0 0 0 0 0 0 0 0 0 0 0 0 0 0 0 0 0 0 0 0 0 0 0 0 0
1 1 1 1 1 1 1 1 1 1 1 1 0 0 0 0 0 0 0 0 0 0 0 0 0 0 0 0 0 0 0 0 0 0 0 0 0 0 0 0 0 0 0
1 1 1 1 1 1 1 1 1 1 1 0 0 0 0 0 0 0 0 0 0 0 0 0 0 0 0 0 0 0 0 0 0 0 0 0 0 0 0 0 0 0 0
1 1 2 2 2 2 1 1 1 1 1 1 0 0 0 0 0 0 0 0 0 0 0 0 0 0 0 0 0 0 0 0 0 0 0 0 0 0 0 0 0 0 0
1 2 2 2 2 2 2 1 1 1 1 1 1 0 0 0 0 0 0 0 0 0 0 0 0 0 0 0 0 0 0 0 0 0 0 0 0 0 0 0 0 0 0
1 1 2 2 2 2 2 1 1 1 1 1 1 0 0 0 0 0 0 0 0 0 0 0 0 0 0 0 0 0 0 0 0 0 0 0 0 0 0 0 0 0 0
1 1 2 1 2 2 2 2 1 1 1 1 1 1 0 0 0 0 0 0 0 0 0 0 0 0 0 0 0 0 0 0 0 0 0 0 0 0 0 0 0 0 0
2 2 2 1 1 1 2 2 1 1 1 1 1 1 1 0 0 0 0 0 0 0 0 0 0 0 0 0 0 0 0 0 0 0 0 0 0 0 0 0 0 0 0
1 2 1 1 1 1 1 1 1 1 1 1 1 1 1 1 1 0 0 0 0 0 0 0 0 0 0 0 0 0 0 0 0 0 0 0 0 0 0 0 0 0 0
1 1 1 1 1 1 1 1 1 1 1 1 1 1 1 1 1 0 0 0 0 0 0 0 0 0 0 0 0 0 0 0 0 0 0 0 0 0 0 0 0 0 0
1 1 1 1 1 1 1 1 1 1 1 1 1 1 1 1 1 1 0 0 0 0 0 0 0 0 0 0 0 0 0 0 0 0 0 0 0 0 0 0 0 0 0
1 1 1 1 1 1 1 1 1 1 1 1 1 1 1 1 1 1 1 0 0 0 0 0 0 0 0 0 0 0 0 0 0 0 0 0 0 0 0 0 0 0 0
1 1 1 1 1 1 1 1 1 1 1 1 1 1 1 1 1 1 0 0 0 0 0 0 0 0 0 0 0 0 0 0 0 0 0 0 0 0 0 0 0 0 0
1 1 1 1 1 1 1 1 1 1 1 1 1 1 1 1 0 0 0 0 0 0 0 0 0 0 0 0 0 0 0 0 0 0 0 0 0 0 0 0 0 0 0
1 1 1 1 1 1 1 1 1 1 1 1 1 1 1 0 0 0 0 0 0 0 0 0 0 0 0 0 0 0 0 0 0 0 0 0 0 0 0 0 0 0 0
1 1 1 1 1 1 1 1 1 1 1 1 1 1 0 0 0 0 0 0 0 0 0 0 0 0 0 0 0 0 0 0 0 0 0 0 0 0 0 0 0 0 0
1 1 1 1 1 1 1 1 1 1 1 1 1 0 0 0 0 0 0 0 0 0 0 0 0 0 0 0 0 0 0 0 0 0 0 0 0 0 0 0 0 0 0
1 1 1 1 1 1 1 1 1 0 0 0 0 0 0 0 0 0 0 0 0 0 0 0 0 0 0 0 0 0 0 0 0 0 0 0 0 0 0 0 0 0 0
0 1 1 1 1 1 1 1 0 0 0 0 0 0 0 0 0 1 1 0 0 0 0 0 0 0 0 0 0 0 0 0 0 0 0 0 0 0 0 0 0 0 0
0 0 1 1 1 1 0 0 0 0 0 0 0 0 0 0 0 1 1 1 0 0 0 0 1 1 1 0 0 0 0 0 0 0 0 0 0 0 0 0 0 0 0
1 1 1 1 0 0 0 0 0 0 0 0 0 0 0 0 0 0 0 0 0 0 0 0 1 1 1 0 0 0 0 0 0 0 0 0 0 0 0 0 0 0 0
1 1 1 0 0 0 0 0 0 0 0 0 0 0 0 0 0 0 0 0 0 0 0 0 0 1 0 0 0 0 0 0 0 0 0 0 0 0 0 0 0 0 0
1 1 0 0 0 0 0 0 0 0 0 0 0 0 0 0 0 0 0 0 0 0 0 0 0 0 0 0 0 0 0 0 0 0 0 0 0 0 0 0 0 0 0
1 1 0 0 0 0 0 0 0 0 0 0 0 0 0 0 0 0 0 0 0 0 0 0 0 0 0 0 0 0 0 0 0 0 0 0 0 0 0 0 0 0 0
1 0 0 0 0 0 0 0 0 0 0 0 0 0 0 0 0 0 0 0 0 0 0 0 0 0 0 0 0 0 0 0 0 0 0 0 0 0 0 0 0 0 0
0 0 0 0 0 0 0 0 0 0 0 0 0 0 0 0 0 0 0 0 0 0 0 0 0 0 0 0 0 0 0 0 0 0 0 0 0 0 0 0 0 0 0
Wind_Speed
12 12 13 13 13 12 11 11 11 10 7 5 4 4 4 4 3 3 5 5 5 5 4 3 3 3 3 3 3 2 2 1 1 2 2 2 1 1 2 3 3 4 5
11 13 13 13 13 13 13 12 12 11 9 6 4 3 4 3 4 4 4 5 6 6 5 4 3 3 3 3 2 3 2 1 1 3 2 2 3 2 1 2 3 4 3
18 16 15 14 13 13 15 13 12 11 9 8 4 3 3 2 2 3 4 4 5 5 5 5 4 4 3 3 3 3 4 2 0 2 3 3 2 2 2 2 2 3 3
15 16 15 15 15 14 13 12 12 11 10 9 7 7 6 5 5 4 4 4 5 5 5 5 5 4 3 3 3 3 3 3 2 1 1 2 4 3 1 2 1 2 3
16 17 17 17 15 13 13 11 11 10 10 9 9 8 6 4 3 3 5 5 4 4 5 5 5 4 3 4 3 3 3 3 3 2 1 1 1 2 2 2 2 2 3
14 14 13 12 11 11 11 11 11 10 10 10 9 9 8 6 6 5 5 5 3 4 5 5 5 5 4 4 4 4 4 3 3 2 2 3 2 2 3 3 2 3 3
14 14 14 13 13 13 13 12 13 11 11 11 10 9 9 9 9 7 7 6 4 4 6 6 5 5 5 5 4 4 4 4 4 3 2 2 3 3 3 3 2 2 2
12 14 15 14 14 14 14 14 14 12 11 11 10 9 8 7 6 7 6 7 5 5 6 6 6 6 5 5 4 3 4 3 3 4 3 2 2 2 3 3 3 1 1
11 13 13 12 12 13 14 14 14 11 11 11 9 8 8 8 7 7 6 5 5 5 6 6 6 6 6 5 5 3 4 4 3 3 3 2 2 2 2 3 3 4 2
10 10 11 12 11 11 11 12 12 12 11 11 10 9 8 8 7 6 7 6 6 6 6 7 6 6 6 5 5 3 3 4 3 3 3 2 2 1 1 2 2 3 4
10 10 9 9 10 9 9 10 10 10 10 10 9 9 8 8 7 7 7 7 6 7 7 7 7 7 6 6 5 5 4 5 4 3 3 4 3 2 1 1 1 2 3
8 9 8 8 8 9 9 9 9 10 9 9 8 8 8 8 8 8 7 7 7 7 7 7 7 7 7 6 6 6 5 5 4 4 3 4 3 3 2 1 1 2 3
7 7 6 7 8 8 9 9 9 9 8 8 8 8 8 8 8 8 7 7 7 6 6 7 7 7 7 7 6 6 5 5 5 4 4 4 4 3 2 2 2 1 1
7 7 6 6 7 7 8 9 8 8 8 8 8 8 7 7 7 7 7 7 7 7 7 7 7 7 7 7 6 6 6 5 4 4 4 4 5 4 4 3 3 2 1
7 8 7 6 6 6 7 8 7 7 8 8 7 8 7 6 6 6 6 6 6 7 6 6 6 6 6 7 7 6 6 5 4 4 4 4 5 6 5 3 3 3 2
7 7 7 7 7 7 7 7 7 7 7 7 6 5 5 5 6 6 5 5 5 5 5 6 6 6 5 7 9 7 6 5 5 4 4 3 4 5 6 6 5 5 4
4 5 6 5 6 6 7 7 7 7 7 6 6 5 5 5 6 6 5 5 5 5 5 5 5 5 4 6 8 8 5 5 5 5 4 3 3 3 3 4 4 4 5
3 4 4 4 4 4 5 6 6 6 6 5 5 5 5 5 5 5 5 5 4 4 4 4 4 4 4 6 7 8 5 4 4 4 4 3 3 3 3 3 2 3 3
5 5 5 5 5 5 5 6 6 5 6 5 5 5 5 5 5 5 5 4 3 3 3 3 4 4 3 5 7 6 3 2 3 2 2 3 3 4 4 3 3 2 3
5 5 5 5 6 5 5 7 6 5 5 4 4 4 4 4 5 5 4 3 3 3 3 2 2 3 2 3 5 6 3 3 2 1 1 2 3 3 4 3 3 3 4
6 6 6 5 4 4 6 6 5 4 3 3 4 4 4 4 4 4 3 3 3 4 3 3 2 2 2 2 3 4 3 3 2 1 1 0 2 2 2 3 2 4 2
6 6 6 5 3 4 6 6 4 3 3 4 4 4 3 3 4 4 3 4 4 4 3 3 3 2 2 3 3 3 3 2 2 1 1 1 2 2 1 1 1 1 1
6 4 6 5 4 4 5 5 3 3 4 5 4 4 4 3 4 4 4 4 4 3 3 3 3 2 2 2 4 4 4 4 3 2 2 3 3 3 2 2 2 2 2
5 4 6 5 4 3 4 4 3 4 5 5 4 4 5 4 4 3 3 3 3 3 3 3 3 2 2 2 2 2 3 4 3 2 4 5 5 4 4 4 3 2 1
4 5 5 5 4 3 3 3 4 5 6 5 5 5 5 5 5 5 4 4 3 2 4 3 3 4 3 1 3 3 3 2 3 3 3 4 3 3 3 3 3 2 2
5 6 6 5 4 4 4 3 3 5 6 5 5 4 4 4 5 6 6 10 8 8 8 7 6 5 5 6 7 6 6 6 7 6 4 3 3 3 3 3 3 3 2
Wind_Direction
179 171 170 168 165 166 166 167 163 164 157 155 154 152 161 164 165 171 168 169 167 162 160 165 167 159 156 169 156 134 123 115 118 83 30 354 353 205 195 186 183 198 199
171 174 171 171 173 173 172 171 169 168 169 168 163 158 154 165 171 171 175 181 177 171 173 167 172 167 157 164 158 138 135 160 135 128 105 9 347 324 230 197 196 200 191
178 178 175 177 176 177 177 176 172 169 170 163 151 142 122 117 147 171 184 193 185 178 171 169 169 171 165 176 180 160 154 167 203 150 145 151 214 292 318 255 213 193 191
180 178 176 178 181 181 177 172 170 170 171 167 169 169 173 179 188 180 183 190 191 183 176 170 171 176 173 177 190 173 160 154 178 205 179 169 160 155 288 314 281 220 207
181 180 181 182 181 176 173 171 169 172 174 175 177 178 183 185 169 166 175 187 192 188 182 175 170 175 182 185 190 172 164 164 170 180 175 142 125 145 156 243 285 281 244
181 180 178 172 171 171 171 170 172 178 178 178 180 183 181 177 170 178 181 188 191 194 192 181 177 179 182 189 194 181 173 173 172 175 170 166 167 186 174 199 233 245 260
178 174 171 171 172 174 175 174 177 183 183 182 185 188 185 181 185 186 187 186 189 196 200 189 186 187 189 188 184 175 175 177 179 186 192 189 195 180 169 172 207 238 274
176 175 178 177 176 177 178 178 181 185 184 185 188 187 184 185 189 188 187 192 194 196 192 188 190 192 189 187 175 179 187 179 187 197 192 197 214 191 180 174 163 177 302
174 176 174 174 176 178 181 181 182 184 186 188 186 186 186 187 190 189 188 191 190 190 189 189 191 195 193 186 174 183 190 182 193 199 200 208 224 201 192 179 167 162 191
169 173 174 177 179 181 180 178 181 186 187 187 189 191 190 189 188 184 191 193 193 191 185 192 192 193 190 185 177 183 190 184 199 198 197 213 220 210 191 184 180 171 171
171 170 173 175 171 168 169 173 180 183 186 189 191 190 188 186 183 188 196 195 191 188 188 191 191 192 191 188 184 192 188 193 204 208 203 219 212 198 203 188 182 182 168
161 159 165 163 161 166 170 173 178 181 187 188 185 190 189 186 189 195 198 194 192 194 193 190 191 195 194 191 190 198 196 194 203 212 206 221 210 205 212 197 204 202 186
149 144 150 159 163 169 173 176 177 182 181 179 177 184 187 188 195 197 194 193 194 195 195 191 192 195 193 192 194 194 197 198 202 205 207 217 201 210 212 198 201 210 189
144 144 156 161 166 171 172 173 175 175 174 174 175 183 191 193 194 194 193 195 195 195 197 195 193 194 195 195 193 191 195 197 203 205 207 209 200 202 201 202 205 194 172
144 153 164 166 166 168 167 165 167 170 170 169 178 190 191 189 188 189 192 192 192 196 196 194 196 194 192 198 193 194 193 191 198 207 210 213 207 203 203 205 198 182 172
156 155 157 165 168 170 171 165 165 168 162 167 177 181 180 182 187 190 190 187 192 195 190 190 193 196 204 198 192 189 188 187 192 201 213 221 213 213 212 210 198 184 183
136 144 151 162 170 171 166 161 159 157 157 165 173 177 180 182 190 190 182 184 188 185 185 190 189 191 199 189 185 184 178 184 191 194 203 220 217 203 205 217 219 222 220
124 125 127 131 141 138 135 140 137 145 152 157 162 167 173 183 182 174 177 179 177 177 175 172 175 179 195 186 184 179 175 176 187 193 199 204 215 210 196 202 210 232 247
123 128 133 130 122 121 127 124 123 132 140 150 160 167 169 169 165 164 171 169 162 163 166 166 172 178 196 189 178 169 163 171 189 199 197 197 211 226 203 187 207 247 273
108 117 116 106 113 121 124 122 126 132 145 158 160 157 158 156 159 160 155 147 146 148 144 149 162 169 177 172 171 164 155 169 186 195 205 211 211 224 202 193 198 228 252
105 106 107 104 115 124 120 119 121 138 155 145 135 130 138 147 149 142 136 135 134 128 128 131 115 110 108 108 133 157 163 174 176 182 197 224 198 207 203 193 200 224 226
90 102 105 102 108 117 118 117 125 132 119 118 114 116 120 131 127 127 131 130 134 136 140 121 98 75 75 83 97 115 144 146 139 142 105 71 82 87 95 109 50 8 67
91 94 104 100 92 105 118 122 132 117 108 105 105 105 101 94 106 119 128 123 127 131 133 125 116 95 70 69 90 100 103 100 101 98 96 78 72 74 65 49 43 47 64
90 95 101 100 95 91 100 117 120 111 105 110 110 110 106 97 89 90 98 112 125 132 127 123 118 105 82 69 72 87 97 94 91 79 70 67 64 61 50 37 30 36 50
80 89 100 101 96 91 88 96 114 112 104 104 105 103 104 108 95 81 67 80 70 117 128 124 124 124 111 90 114 113 103 116 118 100 71 59 52 44 36 33 30 28 33
76 76 81 86 82 79 76 74 94 111 113 108 104 103 107 110 110 106 84 60 70 73 85 98 110 100 104 107 96 93 99 105 111 95 78 68 59 50 38 36 28 24 20